Hourly Data Report for October 18, 2016

All times are specified in Local Standard Time (LST). Add 1 hour to adjust for Daylight Saving Time where and when it is observed.

EUREKA CLIMATE
NUNAVUT

79°59'21.000" N
85°56'02.000" W
10.00 m
2401199
71613
NEK

Download Data

Hourly Data (October 2016)
Hourly Data Report for October 18, 2016
Temp Definition
°C
Dew Point Temp Definition
°C
Rel Hum Definition
%
Wind Dir Definition
10's deg

Wind Spd Definition
km/h
Visibility Definition
km
Stn Press Definition
kPa
Hmdx Definition


Wind Chill Definition


Weather Definition


TIME
00:00 -30.9 -33.7 76 11 8   101.54   -39 LegendNANA
01:00 -30.1 -32.9 77 5 5   101.56   -36 LegendNANA
02:00 -30.3 -33.0 77 10 8   101.58   -38 LegendNANA
03:00 -30.2 -33.0 77 12 5   101.59   -36 LegendNANA
04:00 -29.8 -32.6 76 6 4   101.62   -34 LegendNANA
05:00 -29.5 -32.1 78 10 5   101.62   -35 LegendNANA
06:00 -28.4 -30.9 79 5 5   101.62   -34 LegendNANA
07:00 -29.7 -32.4 77 18 2   101.63   -32 LegendNANA
08:00 -31.0 -33.9 76 13 2   101.64   -33 LegendNANA
09:00 -28.7 -31.3 78 9 5   101.63   -34 LegendNANA
10:00 -29.1 -31.8 77 11 4   101.62   -34 LegendNANA
11:00 -30.7 -33.6 76 12 4   101.62   -35 LegendNANA
12:00 -28.4 -30.8 80 10 4   101.60   -33 LegendNANA
13:00 -26.4 -28.8 80 10 4   101.59   -31 LegendNANA
14:00 -26.6 -28.8 81 8 3   101.59   -30 LegendNANA
15:00 -25.9 -28.3 80 4 5   101.59   -31 LegendNANA
16:00 -25.6 -27.8 81 9 3   101.58   -29 LegendNANA
17:00 -24.0 -25.7 86 3 3   101.54   -27 LegendNANA
18:00 -24.3 -26.5 82 11 3   101.52   -27 LegendNANA
19:00 -24.6 -26.7 82 16 2   101.49   -27 LegendNANA
20:00 -22.5 -24.4 85 12 4   101.48   -26 LegendNANA
21:00 -20.2 -22.0 86 8 5   101.47   -25 LegendNANA
22:00 -20.0 -21.6 87 12 5   101.45   -24 LegendNANA
23:00 -18.1 -19.6 88 12 6   101.44   -23 LegendNANA

Notes on Data Quality.

Legend

  • E = Estimated
  • M = Missing
  • NA = Not Available
  • ‡ = Partner data that is not subject to review by the National Climate Archives
Date modified: